• In Belarus
  • List of Countries
  • For 7 days
  • Water Temperature
  • Satellite Maps
  • Weather Map
  • Weather Widgets
  • user-avatar
    Login

    Hourly Weather Porubka

    Today, 22 April, Monday

    Time Temperature Precipitation Wind Pressure Humidity
    00:00 +7°C° 0 mm 2 mps 753 mmHg 90%
    01:00 +7°C° 0 mm 3 mps 753 mmHg 89%
    02:00 +7°C° 0 mm 3 mps 754 mmHg 88%
    03:00 +5°C° 0 mm 3 mps 754 mmHg 88%
    04:00 +5°C° 0 mm 3 mps 754 mmHg 88%
    05:00 +5°C° 0 mm 3 mps 754 mmHg 87%
    06:00 +7°C° 0 mm 3 mps 755 mmHg 80%
    07:00 +7°C° 0 mm 4 mps 755 mmHg 73%
    08:00 +10°C° 0 mm 4 mps 756 mmHg 66%
    09:00 +12°C° 0 mm 4 mps 756 mmHg 56%
    10:00 +13°C° 0 mm 5 mps 756 mmHg 46%
    11:00 +15°C° 0 mm 6 mps 756 mmHg 35%
    12:00 +15°C° 0 mm 6 mps 756 mmHg 34%
    13:00 +16°C° 0 mm 6 mps 757 mmHg 32%
    14:00 +16°C° 0 mm 5 mps 757 mmHg 31%
    15:00 +16°C° 0 mm 5 mps 757 mmHg 32%
    16:00 +16°C° 0 mm 5 mps 757 mmHg 33%
    17:00 +15°C° 0 mm 5 mps 757 mmHg 34%
    18:00 +14°C° 0 mm 4 mps 757 mmHg 39%
    19:00 +12°C° 0 mm 3 mps 757 mmHg 45%
    20:00 +10°C° 0 mm 2 mps 757 mmHg 50%
    21:00 +9°C° 0 mm 2 mps 757 mmHg 52%
    22:00 +9°C° 0 mm 2 mps 758 mmHg 55%
    23:00 +8°C° 0 mm 2 mps 758 mmHg 57%

    Tomorrow, 23 April, Tuesday

    Time Temperature Precipitation Wind Pressure Humidity
    00:00 +8°C° 0 mm 2 mps 758 mmHg 59%
    01:00 +7°C° 0 mm 2 mps 758 mmHg 60%
    02:00 +7°C° 0 mm 2 mps 758 mmHg 61%
    03:00 +7°C° 0 mm 2 mps 758 mmHg 62%
    04:00 +6°C° 0 mm 2 mps 758 mmHg 62%
    05:00 +6°C° 0 mm 2 mps 758 mmHg 63%
    06:00 +8°C° 0 mm 3 mps 759 mmHg 57%
    07:00 +10°C° 0 mm 4 mps 759 mmHg 52%
    08:00 +12°C° 0 mm 4 mps 759 mmHg 46%
    09:00 +13°C° 0 mm 5 mps 759 mmHg 41%
    10:00 +15°C° 0 mm 6 mps 759 mmHg 37%
    11:00 +16°C° 0 mm 6 mps 759 mmHg 32%
    12:00 +17°C° 0 mm 6 mps 758 mmHg 32%
    13:00 +17°C° 0 mm 6 mps 758 mmHg 32%
    14:00 +19°C° 0 mm 6 mps 758 mmHg 32%
    15:00 +17°C° 0 mm 6 mps 758 mmHg 33%
    16:00 +17°C° 0 mm 6 mps 757 mmHg 34%
    17:00 +17°C° 0 mm 6 mps 757 mmHg 36%
    18:00 +15°C° 0 mm 5 mps 757 mmHg 40%
    19:00 +13°C° 0 mm 4 mps 757 mmHg 45%
    20:00 +12°C° 0 mm 3 mps 757 mmHg 49%
    21:00 +11°C° 0 mm 3 mps 757 mmHg 52%
    22:00 +10°C° 0 mm 4 mps 757 mmHg 54%
    23:00 +10°C° 0 mm 4 mps 758 mmHg 56%

    Day after tomorrow, 24 April, Wednesday

    Time Temperature Precipitation Wind Pressure Humidity
    00:00 +10°C° 0 mm 4 mps 758 mmHg 57%
    01:00 +8°C° 0 mm 4 mps 758 mmHg 58%
    02:00 +8°C° 0 mm 4 mps 758 mmHg 58%
    03:00 +7°C° 0 mm 4 mps 758 mmHg 60%
    04:00 +7°C° 0 mm 4 mps 758 mmHg 62%
    05:00 +6°C° 0 mm 4 mps 757 mmHg 64%
    06:00 +8°C° 0 mm 4 mps 758 mmHg 58%
    07:00 +10°C° 0 mm 5 mps 758 mmHg 53%
    08:00 +13°C° 0 mm 6 mps 758 mmHg 47%
    09:00 +14°C° 0 mm 7 mps 758 mmHg 44%
    10:00 +15°C° 0 mm 7 mps 758 mmHg 40%
    11:00 +16°C° 0 mm 7 mps 758 mmHg 36%
    12:00 +17°C° 0 mm 7 mps 757 mmHg 35%
    13:00 +18°C° 0 mm 7 mps 757 mmHg 34%
    14:00 +18°C° 0 mm 7 mps 757 mmHg 33%
    15:00 +18°C° 0 mm 7 mps 757 mmHg 34%
    16:00 +19°C° 0 mm 6 mps 757 mmHg 36%
    17:00 +17°C° 0 mm 6 mps 756 mmHg 38%
    18:00 +16°C° 0 mm 5 mps 756 mmHg 43%
    19:00 +14°C° 0 mm 4 mps 756 mmHg 47%
    20:00 +13°C° 0 mm 4 mps 756 mmHg 52%
    21:00 +12°C° 0 mm 4 mps 756 mmHg 54%
    22:00 +11°C° 0 mm 4 mps 757 mmHg 56%
    23:00 +11°C° 0 mm 4 mps 757 mmHg 59%

    25 April, Thursday

    Time Temperature Precipitation Wind Pressure Humidity
    00:00 +10°C° 0 mm 4 mps 757 mmHg 60%
    01:00 +10°C° 0 mm 4 mps 757 mmHg 61%
    02:00 +10°C° 0 mm 4 mps 757 mmHg 63%
    03:00 +8°C° 0 mm 4 mps 757 mmHg 63%
    04:00 +8°C° 0 mm 4 mps 757 mmHg 64%
    05:00 +8°C° 0 mm 4 mps 757 mmHg 65%
    06:00 +9°C° 0 mm 5 mps 757 mmHg 60%
    07:00 +11°C° 0 mm 6 mps 757 mmHg 55%
    08:00 +13°C° 0 mm 6 mps 757 mmHg 49%
    09:00 +15°C° 0 mm 6 mps 757 mmHg 46%
    10:00 +16°C° 0 mm 7 mps 756 mmHg 42%
    11:00 +18°C° 0 mm 7 mps 756 mmHg 39%
    12:00 +18°C° 0 mm 7 mps 756 mmHg 38%
    13:00 +20°C° 0 mm 6 mps 756 mmHg 37%
    14:00 +21°C° 0 mm 6 mps 755 mmHg 37%
    15:00 +21°C° 0 mm 6 mps 755 mmHg 39%
    16:00 +20°C° 0 mm 6 mps 755 mmHg 42%
    17:00 +20°C° 0 mm 5 mps 754 mmHg 44%
    18:00 +19°C° 0 mm 5 mps 754 mmHg 48%
    19:00 +17°C° 0 mm 4 mps 754 mmHg 52%
    20:00 +15°C° 0 mm 4 mps 754 mmHg 56%
    21:00 +14°C° 0 mm 4 mps 754 mmHg 58%
    22:00 +14°C° 0 mm 4 mps 754 mmHg 59%
    23:00 +13°C° 0 mm 4 mps 754 mmHg 61%

    26 April, Friday

    Time Temperature Precipitation Wind Pressure Humidity
    00:00 +12°C° 0 mm 4 mps 754 mmHg 63%
    01:00 +12°C° 0 mm 4 mps 753 mmHg 65%
    02:00 +12°C° 0 mm 4 mps 753 mmHg 67%
    03:00 +11°C° 0 mm 4 mps 753 mmHg 68%
    04:00 +11°C° 0 mm 4 mps 753 mmHg 70%
    05:00 +10°C° 0 mm 4 mps 753 mmHg 71%
    06:00 +12°C° 0 mm 5 mps 753 mmHg 66%
    07:00 +13°C° 0 mm 5 mps 753 mmHg 61%
    08:00 +15°C° 0 mm 6 mps 752 mmHg 57%
    09:00 +16°C° 0 mm 6 mps 752 mmHg 53%
    10:00 +19°C° 0 mm 6 mps 752 mmHg 49%
    11:00 +20°C° 0 mm 6 mps 752 mmHg 46%
    12:00 +21°C° 0 mm 6 mps 751 mmHg 45%
    13:00 +22°C° 0 mm 6 mps 751 mmHg 44%
    14:00 +23°C° 0 mm 6 mps 751 mmHg 43%
    15:00 +23°C° 0 mm 6 mps 750 mmHg 45%
    16:00 +23°C° 0 mm 5 mps 750 mmHg 46%
    17:00 +23°C° 0 mm 5 mps 749 mmHg 48%
    18:00 +21°C° 0 mm 5 mps 749 mmHg 53%
    19:00 +19°C° 0 mm 4 mps 749 mmHg 58%
    20:00 +18°C° 0 mm 4 mps 749 mmHg 63%
    21:00 +17°C° 0 mm 4 mps 749 mmHg 65%
    22:00 +15°C° 0 mm 4 mps 749 mmHg 66%
    23:00 +15°C° 0 mm 4 mps 749 mmHg 67%

    27 April, Saturday

    Time Temperature Precipitation Wind Pressure Humidity
    00:00 +14°C° 0 mm 4 mps 749 mmHg 67%
    01:00 +13°C° 0 mm 4 mps 749 mmHg 68%
    02:00 +13°C° 0 mm 4 mps 749 mmHg 68%
    03:00 +13°C° 0 mm 4 mps 749 mmHg 67%
    04:00 +12°C° 0 mm 4 mps 749 mmHg 67%
    05:00 +12°C° 0 mm 4 mps 749 mmHg 66%
    06:00 +13°C° 0.1 mm 5 mps 749 mmHg 65%
    07:00 +14°C° 0.1 mm 5 mps 749 mmHg 64%
    08:00 +15°C° 0.1 mm 5 mps 749 mmHg 63%
    09:00 +17°C° 0.1 mm 5 mps 749 mmHg 60%
    10:00 +20°C° 0.1 mm 5 mps 749 mmHg 56%
    11:00 +21°C° 0.1 mm 4 mps 748 mmHg 53%
    12:00 +23°C° 0 mm 4 mps 748 mmHg 50%
    13:00 +25°C° 0 mm 4 mps 748 mmHg 47%
    14:00 +26°C° 0 mm 4 mps 748 mmHg 44%
    15:00 +26°C° 0.1 mm 4 mps 748 mmHg 45%
    16:00 +25°C° 0.1 mm 4 mps 748 mmHg 47%
    17:00 +25°C° 0.1 mm 4 mps 748 mmHg 48%
    18:00 +22°C° 1.5 mm 3 mps 748 mmHg 60%
    19:00 +20°C° 1.5 mm 3 mps 748 mmHg 71%
    20:00 +17°C° 1.5 mm 3 mps 749 mmHg 83%
    21:00 +17°C° 0.1 mm 2 mps 749 mmHg 87%
    22:00 +16°C° 0.1 mm 2 mps 749 mmHg 91%
    23:00 +16°C° 0.1 mm 2 mps 749 mmHg 95%
    Show more